Wind_Speed
41 39 35 31 31 28 32 30 29 31 28 29 28 26 29 29 25 23 24 24 24 24 21 21 21 22 22 23 24 27 29 30
39 34 33 33 29 32 35 36 38 36 33 30 29 26 29 26 24 26 26 26 26 25 26 24 24 23 22 23 24 27 28 30
37 36 35 38 39 33 36 42 38 37 25 23 26 26 29 25 26 28 31 31 31 32 31 27 29 30 29 28 28 29 31 32
43 42 43 39 39 42 39 41 40 38 38 37 34 35 32 31 28 31 29 31 34 32 32 30 31 31 34 31 34 30 38 37
45 43 45 42 41 39 41 40 41 41 37 36 34 31 35 38 34 34 36 33 33 32 33 36 39 39 40 39 41 39 41 45
44 45 47 45 43 41 41 43 45 42 34 33 35 35 38 41 40 36 31 36 37 39 38 43 45 47 46 44 47 46 49 50
47 49 50 45 44 42 45 47 47 44 42 41 41 40 39 38 38 38 41 44 46 46 48 47 49 51 51 51 53 57 57 58
48 45 46 46 47 47 48 48 51 51 51 50 48 49 49 49 50 50 51 52 53 56 54 55 54 55 57 56 59 62 65 67
50 51 46 46 54 49 55 59 57 55 55 55 55 56 58 57 59 57 60 58 56 60 60 61 62 62 64 63 65 68 68 71
54 47 53 53 53 41 43 50 58 58 57 56 59 59 58 58 60 60 61 63 65 64 64 67 66 71 72 71 72 71 73 76
62 59 53 51 60 62 58 55 58 58 57 53 53 55 60 61 65 66 67 69 72 70 70 71 76 77 77 78 77 79 79 79
54 65 67 61 58 59 60 60 58 56 60 63 64 64 65 70 66 69 70 69 69 70 75 75 78 80 82 79 83 82 81 79
60 61 63 63 62 63 59 62 59 57 47 51 51 50 49 51 63 64 68 67 74 71 67 74 81 82 83 81 82 81 75 78
66 61 59 60 66 61 57 55 58 64 63 63 64 60 68 68 64 68 71 72 64 69 78 79 82 83 81 81 81 77 76 81
76 73 75 70 66 68 72 68 57 56 70 73 68 67 64 68 73 70 69 68 73 80 77 80 83 77 80 79 76 73 84 85
80 85 84 79 75 73 73 77 75 68 61 64 68 71 71 77 79 73 74 82 82 85 83 71 72 83 83 77 78 83 88 89
59 65 80 84 80 80 79 67 75 77 79 79 75 70 72 63 62 60 66 69 73 78 83 89 93 83 74 76 87 90 94 91
61 60 63 70 76 86 88 87 88 88 86 80 74 69 66 68 73 76 80 80 82 82 89 85 75 73 78 87 93 99 96 92
62 64 66 66 68 69 74 84 92 93 90 81 79 78 84 88 88 90 91 77 77 85 83 75 76 81 92 97 99 96 91 88
53 57 63 67 70 73 74 74 76 79 81 84 87 89 90 90 91 95 91 88 90 89 83 88 91 97 98 95 90 88 87 84
Wind_Direction
253 253 258 257 257 253 254 259 269 270 263 268 276 279 286 290 292 296 306 305 302 303 306 303 307 310 314 313 312 313 313 311
247 249 255 249 247 263 263 259 269 269 273 278 285 285 283 277 279 292 295 300 301 303 304 307 303 305 307 311 312 313 311 312
242 250 246 246 246 246 252 257 260 265 272 272 276 282 278 273 277 283 296 303 303 305 308 306 311 311 310 310 309 308 305 306
247 238 242 247 248 250 260 262 260 263 269 270 273 279 278 270 276 283 290 297 303 302 304 305 308 306 303 302 302 295 298 299
243 238 246 247 250 252 257 260 262 264 269 272 275 275 273 275 274 281 287 298 300 298 297 301 302 300 294 295 295 294 296 300
241 237 244 251 247 248 261 261 258 261 264 271 281 279 273 269 271 275 285 296 296 298 294 299 299 296 298 296 293 295 299 299
240 238 238 249 245 245 249 256 261 262 265 270 276 280 277 266 271 275 284 292 302 299 296 298 297 297 296 295 295 298 301 301
236 232 237 239 245 241 248 249 258 262 266 268 273 274 276 273 271 276 282 289 295 296 295 295 295 296 295 297 297 300 302 302
226 232 226 235 242 246 246 248 254 259 263 264 266 271 273 276 273 275 282 288 291 292 293 295 294 296 298 298 300 301 303 307
237 239 244 241 234 244 242 251 259 261 264 265 265 268 269 273 274 277 280 284 288 289 291 292 295 298 299 300 303 304 305 305
234 234 238 231 235 240 248 260 259 254 257 258 260 269 272 274 273 275 278 283 285 288 287 291 296 299 299 301 303 305 305 308
240 239 235 236 244 248 253 259 265 272 270 275 276 279 278 274 275 277 284 283 285 286 288 294 297 298 299 301 305 306 311 310
238 237 244 245 253 256 254 255 257 259 261 268 276 279 282 282 283 285 284 285 288 289 291 294 296 300 300 302 304 309 306 306
232 235 238 248 249 246 252 261 264 260 259 263 267 263 271 278 278 280 285 286 286 286 293 297 297 299 299 302 305 305 305 305
235 239 240 239 243 250 252 254 262 264 264 266 269 271 264 267 277 279 282 280 286 292 293 293 295 294 298 302 302 301 304 304
236 239 243 242 246 252 254 255 253 256 262 259 265 270 273 270 278 281 279 287 284 287 291 288 289 290 297 296 297 300 302 301
245 246 244 246 248 250 249 246 253 258 262 266 271 274 276 272 271 270 275 280 280 281 282 287 291 296 292 292 296 299 300 299
247 246 246 245 248 249 249 252 255 258 262 265 265 259 257 259 267 268 272 274 278 280 287 292 291 284 286 290 294 295 297 298
246 247 247 249 250 252 253 252 253 257 260 260 257 252 259 264 266 270 270 274 278 281 287 284 277 280 285 289 292 294 297 297
253 252 250 251 252 253 254 256 257 258 259 259 260 263 265 267 267 268 269 268 272 276 272 273 275 278 283 289 292 294 296 298
Height
10820 10822 10824 10825 10827 10827 10829 10830 10831 10832 10832 10832 10832 10832 10831 10831 10831 10830 10830 10830 10829 10828 10827 10826 10826 10825 10824 10822 10820 10818 10815 10814
10814 10816 10817 10819 10821 10823 10824 10825 10826 10827 10828 10828 10827 10827 10827 10827 10826 10826 10826 10826 10826 10825 10825 10823 10822 10821 10820 10819 10817 10814 10811 10810
10808 10810 10811 10813 10815 10816 10817 10819 10821 10822 10824 10823 10823 10823 10822 10822 10822 10821 10821 10821 10821 10821 10820 10819 10818 10817 10815 10815 10813 10810 10807 10806
10801 10802 10804 10807 10809 10810 10811 10813 10815 10816 10817 10818 10819 10819 10819 10817 10817 10817 10817 10816 10816 10815 10814 10814 10813 10813 10809 10809 10808 10804 10800 10799
10793 10795 10797 10800 10801 10803 10804 10806 10808 10809 10811 10812 10813 10813 10814 10813 10812 10811 10811 10811 10811 10811 10810 10809 10808 10805 10804 10804 10798 10799 10794 10790
10785 10788 10790 10791 10794 10796 10798 10800 10801 10803 10804 10806 10806 10807 10807 10807 10806 10806 10805 10806 10806 10805 10805 10803 10801 10796 10797 10796 10789 10790 10788 10784
10778 10781 10783 10783 10786 10789 10789 10792 10794 10795 10797 10798 10799 10800 10800 10800 10800 10799 10798 10798 10798 10797 10797 10795 10794 10789 10789 10788 10783 10779 10777 10774
10769 10773 10774 10776 10777 10779 10782 10783 10785 10788 10790 10790 10791 10791 10792 10792 10791 10791 10790 10790 10789 10788 10787 10784 10783 10781 10777 10776 10773 10769 10765 10761
10761 10763 10764 10767 10766 10770 10773 10774 10775 10778 10780 10781 10782 10782 10783 10782 10781 10781 10781 10780 10779 10778 10775 10772 10770 10770 10766 10763 10760 10757 10753 10748
10751 10754 10756 10759 10759 10762 10764 10762 10767 10769 10771 10772 10772 10773 10773 10773 10771 10771 10771 10770 10769 10766 10763 10759 10758 10756 10753 10750 10747 10743 10739 10733
10739 10744 10747 10748 10751 10753 10756 10757 10757 10759 10759 10761 10761 10763 10762 10762 10761 10761 10760 10760 10758 10755 10750 10749 10746 10743 10741 10737 10732 10728 10723 10717
10729 10731 10735 10739 10741 10745 10746 10746 10747 10748 10749 10750 10750 10751 10749 10748 10749 10749 10749 10747 10746 10743 10739 10737 10734 10730 10727 10723 10718 10713 10706 10701
10720 10724 10727 10731 10732 10733 10733 10736 10739 10739 10740 10740 10739 10739 10738 10734 10735 10736 10734 10733 10732 10730 10726 10723 10720 10715 10712 10709 10704 10698 10693 10688
10709 10714 10719 10721 10721 10724 10722 10724 10726 10728 10729 10729 10729 10729 10729 10727 10724 10725 10722 10720 10719 10715 10712 10709 10705 10701 10697 10694 10690 10685 10680 10674
10697 10701 10704 10707 10709 10711 10714 10716 10715 10713 10715 10716 10718 10718 10717 10716 10713 10713 10711 10708 10706 10702 10698 10696 10693 10687 10683 10679 10676 10672 10667 10661
10683 10685 10689 10695 10698 10700 10702 10702 10703 10702 10704 10702 10704 10704 10704 10703 10702 10701 10698 10694 10691 10690 10686 10682 10678 10674 10670 10665 10661 10657 10652 10647
10671 10674 10679 10683 10686 10687 10689 10687 10688 10690 10692 10692 10692 10691 10690 10689 10688 10686 10683 10680 10679 10677 10673 10669 10665 10659 10656 10652 10647 10642 10636 10629
10659 10663 10664 10666 10669 10670 10672 10673 10675 10676 10678 10678 10679 10679 10678 10676 10675 10673 10669 10668 10665 10661 10658 10654 10650 10647 10644 10639 10633 10626 10619 10610
10646 10648 10651 10653 10655 10655 10655 10658 10660 10661 10661 10661 10662 10663 10662 10662 10662 10658 10656 10653 10650 10648 10645 10640 10638 10634 10630 10623 10618 10611 10603 10594
10633 10636 10638 10639 10638 10639 10640 10643 10645 10645 10646 10646 10646 10647 10647 10645 10643 10641 10641 10638 10636 10635 10631 10627 10623 10618 10615 10609 10603 10596 10587 10579